Regional Weather Roundup
Issued by NWS

Home | Current Version | Previous Version | Graphics & Text | Print | Product List | Glossary On
Versions: 1 2 3 4 5 6 7 8 9 10 11 12 13 14 15 16 17 18 19 20 21 22 23 24 25 26 27 28
000
ASUS45 KCYS 300510
RWRWY

WYOMING REGIONAL WEATHER ROUNDUP
NATIONAL WEATHER SERVICE CHEYENNE WY
1100 PM MDT THU SEP 29 2016

NOTE:  "FAIR" INDICATES FEW OR NO CLOUDS BELOW 12,000 FEET
WITH NO SIGNIFICANT WEATHER AND/OR OBSTRUCTIONS TO VISIBILITY.

WYZ001-300600-
YELLOWSTONE NATIONAL PARK

CITY           SKY/WX    TMP DP  RH WIND       PRES   REMARKS
LK YELLOWSTONE   N/A     41  39  93 CALM      30.39S
W YELLOWSTONE  NOT AVBL

$$
WYZ002>013-054>058-071-098>099-300600-
NORTHERN WYOMING

CITY           SKY/WX    TMP DP  RH WIND       PRES   REMARKS
JACKSON        FAIR      43  43 100 CALM      30.34R
CODY           FAIR      60  44  55 VRB5      30.20S
GREYBULL       MOCLDY    64  52  64 W14G21    30.16R
WORLAND        CLOUDY    61  51  70 N3        30.16S
SHERIDAN       FAIR      59  49  69 SE10      30.08S
BUFFALO        FAIR      68  42  38 S10       30.15F
GILLETTE       FAIR      68  47  46 SW20G30   30.14F
HULETT         CLOUDY    72  43  35 SW15      30.16F
NEWCASTLE      FAIR      68  39  34 SE12G18   30.21S

$$
WYZ014>020-022>026-101>103-300600-
CENTRAL WYOMING

CITY           SKY/WX    TMP DP  RH WIND       PRES   REMARKS
BIG PINEY      FAIR      44  40  85 N8        30.35S
PINEDALE       FAIR      43  43 100 NW3       30.35S
DUBOIS         FAIR      43  39  87 NW15      30.34S
LANDER         MOCLDY    56  48  74 CALM      30.24S
RIVERTON       FAIR      56  50  80 W10       30.25R
CASPER         FAIR      60  47  61 SE7       30.25S
DOUGLAS        FAIR      57  45  64 E6        30.24F

$$
WYZ021-027>030-104>119-300600-
SOUTHERN WYOMING

CITY           SKY/WX    TMP DP  RH WIND       PRES   REMARKS
EVANSTON       FAIR      53  41  63 S6        30.35S
FORT BRIDGER   FAIR      60  42  53 S7        30.38S
ROCK SPRINGS   FAIR      55  44  66 S8        30.34S
DIXON          FAIR      55  47  75 SE3       30.40S
RAWLINS        FAIR      56  46  69 SW8       30.35F
SARATOGA       FAIR      54  45  71 SE8       30.38S
LARAMIE        MOCLDY    51  44  77 W7        30.37S
CHEYENNE       FAIR      54  42  64 NW3       30.30F
TORRINGTON     FAIR      57  43  59 E10       30.22S
PINE BLUFFS    FAIR      59  39  47 SE20G30   30.25S

$$




USA.gov is the U.S. government's official web portal to all federal, state and local government web resources and services.